星链-32401 (STARLINK-32401)

导读

STARLINK-32401是美国SpaceX公司星链(Starlink)卫星互联网项目中的一颗低轨通信卫星,于2024年11月7日发射入轨。作为星链大规模星座组网计划的组成部分,它运行于近地轨道,旨在为全球提供高速低延迟的宽带互联网服务,尤其弥补偏远地区、海洋空域等传统网络覆盖盲区,助力缩小全球数字鸿沟,同时星链系统也可支持应急通信与商业应用场景。

Basic Information
目录编号:
61865
目录名称:
STARLINK-32401
国际标识:
2024-202W
轨道中心:
EARTH
卫星名称:
星链-32401
卫星全名:
星链-32401 (STARLINK-32401)
卫星状态:
在轨 (已飞行667 天)
发射日期:
2024-11-07 UTC
国别 :
美国 (US)
星等 :
--
Orbit Information
数据来源 国际轨道数据
星历时间: 2026-09-05T13:47:38+0800
13小时前
查看轨道信息
半长轴: 6861.207km
偏心率: 0.0001335
轨道倾角: 43.002°
近地点辐角 274.202°
升交点赤经 304.328°
平近点角 85.867°
近地点: 482.154km
远地点: 483.986km
周期: 94.267分钟
每日圈数: 15.275733
Detailed Information
固有亮度:
5
最大亮度:
2.5
卫星平台:
Starlink V1.0
覆盖范围:
全球
运营商:
太空探索技术公司
运营商所在国:
美国
制造商(研发单位):
太空探索技术公司
制造商所在国:
美国
使用方式:
暂无
Satellite Introduction
Starlink 计划是 SpaceX 推出的全球卫星互联网项目,通过发射低轨道卫星,为全球尤其是偏远地区提供高速、低延迟的互联网服务。自 2019 年起,Starlink 已部署数千颗卫星,旨在缩小全球数字鸿沟,推动互联网普及。该项目还为军事、航空等行业提供通信支持,带来广泛经济效益。
2D Orbit Map
3D Orbit Map
Orbit Altitude Analysis Chart
Orbit Inclination Analysis Chart
Orbit Comprehensive Analysis Chart
View Comprehensive Chart
Conjunction Data List
Event ID Objects TCA Miss Dist (km) Collision Risk Probability Collision Risk Index (CRI) Action
CDM_260901-120705-746006-186521
2026-09-01T
12:07:41+0000
0.562 km
远距离
1.040991E-4 高风险 0.75
CDM_260907-074406-186506-751522
2026-09-07T
07:44:53+0000
0.938 km
远距离
1.872364E-5 中风险 0.6
CDM_260901-103305-746006-186521
2026-09-01T
10:33:32+0000
1.058 km
极远距离
1.424266E-5 中风险 0.58
CDM_260907-175606-186506-751522
2026-09-07T
17:56:53+0000
1.104 km
极远距离
1.06856E-5 中风险 0.56
CDM_260907-091906-186506-751522
2026-09-07T
09:19:02+0000
1.713 km
极远距离
2.559191E-6 低风险 0.43
CDM_260901-085905-746006-186521
2026-09-01T
08:59:22+0000
1.818 km
极远距离
2.457581E-6 低风险 0.43
CDM_260907-162206-186506-751521
2026-09-07T
16:22:44+0000
2.318 km
极远距离
1.23357E-6 低风险 0.37
CDM_260901-072505-746006-186521
2026-09-01T
07:25:13+0000
2.655 km
极远距离
1.095228E-6 低风险 0.36